Weather History for Petersburg, WV

Change the Weather History Date:

Sunday, January 27, 2013

  Actual Average (KEKN) Record (KEKN)
Temperature  
Mean Temperature 30 °F 30 °F  
Max Temperature 41 °F 39 °F 68 °F (1916)
Min Temperature 19 °F 20 °F -18 °F (1987)
Degree Days  
Heating Degree Days 36 35  
Month to date heating degree days 971  
Since 1 July heating degree days 3262  
Cooling Degree Days 0 0  
Month to date cooling degree days 0  
Year to date cooling degree days 0  
Moisture  
Dew Point 20 °F    
Average Humidity 62    
Maximum Humidity 84    
Minimum Humidity 42    
Precipitation  
Precipitation 0.00 in 0.10 in 1.40 in (1952)
Month to date precipitation 2.81  
Year to date precipitation 2.81  
Snow  
Snow 0.00 in - - ()
Month to date snowfall  
Since 1 September snowfall  
Snow Depth -    
Sea Level Pressure  
Sea Level Pressure 30.46 in    
Wind  
Wind Speed 1 mph (North)    
Max Wind Speed 6 mph    
Max Gust Speed -    
Visibility 10 miles    
Events      
T = Trace of Precipitation, MM = Missing Value Source: NWS Daily Summary

Daily Weather History Graph

Daily Weather History Graph

Search for Another Location

Airport:

Trip Planner

Search our weather history database for the weather conditions in past years. The results will help you decide how hot, cold, wet, or windy it might be!

Date:

Astronomy

Jan. 27, 2013 Rise Set
Actual Time 7:26 AM EST 5:32 PM EST
Civil Twilight 6:58 AM EST 6:00 PM EST
Nautical Twilight 6:26 AM EST 6:32 PM EST
Astronomical Twilight 5:54 AM EST 7:04 PM EST
Moon 6:23 PM EST (1/27) 7:19 AM EST (1/27)
Length of Visible Light 11h 02m
Length of Day
10h 05m
Full, 100% of the Moon is Illuminated
Jan 27
Full
Feb 3
Last Quarter
Feb 10
New
Feb 17
First Quarter
Feb 25
Full

Hourly Weather History & Observations

Time (EST) Temp. Windchill Dew Point Humidity Pressure Visibility Wind Dir Wind Speed Gust Speed Precip Events Conditions
12:15 AM 29.7 °F 26.1 °F 23.4 °F 77% 30.43 in 10.0 mi West 3.5 mph - N/A   Overcast
12:35 AM 29.8 °F - 23.0 °F 76% 30.43 in 10.0 mi Calm Calm - N/A   Overcast
12:55 AM 29.1 °F 24.1 °F 21.9 °F 74% 30.43 in 10.0 mi NNE 4.6 mph - N/A   Mostly Cloudy
1:15 AM 29.7 °F 24.7 °F 19.4 °F 66% 30.44 in 10.0 mi NNE 4.6 mph - N/A   Overcast
1:35 AM 29.7 °F 24.7 °F 18.9 °F 64% 30.44 in 10.0 mi NNE 4.6 mph - N/A   Overcast
1:55 AM 29.3 °F 23.2 °F 18.1 °F 63% 30.44 in 10.0 mi NNE 5.8 mph - N/A   Overcast
2:15 AM 29.3 °F 25.6 °F 17.8 °F 62% 30.45 in 10.0 mi NE 3.5 mph - N/A   Overcast
2:35 AM 29.3 °F - 17.6 °F 62% 30.47 in 10.0 mi Calm Calm - N/A   Overcast
2:55 AM 29.3 °F - 17.2 °F 61% 30.46 in 10.0 mi Calm Calm - N/A   Overcast
3:15 AM 29.3 °F - 18.0 °F 63% 30.46 in 10.0 mi Calm Calm - N/A   Overcast
3:35 AM 28.6 °F - 19.4 °F 69% 30.46 in 10.0 mi Calm Calm - N/A   Overcast
3:55 AM 28.6 °F - 18.3 °F 65% 30.44 in 10.0 mi Calm Calm - N/A   Overcast
4:15 AM 28.4 °F - 17.6 °F 64% 30.46 in 10.0 mi Calm Calm - N/A   Overcast
4:35 AM 27.9 °F - 17.6 °F 65% 30.46 in 10.0 mi Calm Calm - N/A   Overcast
4:55 AM 27.9 °F - 17.2 °F 64% 30.46 in 10.0 mi Calm Calm - N/A   Overcast
5:15 AM 27.9 °F - 16.0 °F 61% 30.47 in 10.0 mi Calm Calm - N/A   Overcast
5:35 AM 27.5 °F - 16.7 °F 64% 30.48 in 10.0 mi Calm Calm - N/A   Overcast
5:55 AM 26.6 °F - 17.6 °F 69% 30.49 in 10.0 mi Calm Calm - N/A   Overcast
6:15 AM 25.2 °F 20.9 °F 18.1 °F 75% 30.49 in 10.0 mi WNW 3.5 mph - N/A   Scattered Clouds
6:35 AM 22.6 °F - 16.9 °F 79% 30.50 in 10.0 mi Calm Calm - N/A   Clear
6:55 AM 21.7 °F - 16.5 °F 80% 30.50 in 10.0 mi Calm Calm - N/A   Clear
7:15 AM 20.1 °F - 15.3 °F 81% 30.51 in 10.0 mi Calm Calm - N/A   Clear
7:35 AM 21.4 °F - 16.2 °F 80% 30.51 in 10.0 mi Calm Calm - N/A   Clear
7:55 AM 19.6 °F - 13.8 °F 78% 30.53 in 10.0 mi Calm Calm - N/A   Clear
8:15 AM 19.9 °F - 15.8 °F 84% 30.54 in 7.0 mi Calm Calm - N/A   Clear
8:35 AM 21.2 °F - 16.3 °F 82% 30.54 in 7.0 mi Calm Calm - N/A   Clear
8:55 AM 23.4 °F - 17.2 °F 77% 30.55 in 10.0 mi Calm Calm - N/A   Clear
9:15 AM 25.0 °F - 17.1 °F 72% 30.54 in 10.0 mi Calm Calm - N/A   Clear
9:35 AM 26.8 °F - 16.2 °F 64% 30.54 in 10.0 mi Calm Calm - N/A   Clear
9:55 AM 28.2 °F - 16.2 °F 61% 30.54 in 10.0 mi Calm Calm - N/A   Clear
10:15 AM 28.9 °F - 15.6 °F 58% 30.54 in 10.0 mi Calm Calm - N/A   Clear
10:35 AM 30.6 °F - 15.3 °F 53% 30.54 in 10.0 mi Calm Calm - N/A   Clear
10:55 AM 30.9 °F 26.2 °F 15.8 °F 54% 30.55 in 10.0 mi NE 4.6 mph - N/A   Clear
11:15 AM 31.3 °F - 16.2 °F 54% 30.54 in 10.0 mi Calm Calm - N/A   Clear
11:35 AM 33.1 °F - 18.0 °F 54% 30.53 in 10.0 mi Calm Calm - N/A   Clear
11:55 AM 34.0 °F - 18.3 °F 53% 30.51 in 10.0 mi Calm Calm - N/A   Clear
12:15 PM 34.0 °F - 19.0 °F 54% 30.50 in 10.0 mi Calm Calm - N/A   Clear
12:35 PM 35.6 °F - 18.9 °F 51% 30.49 in 10.0 mi Calm Calm - N/A   Clear
12:55 PM 36.3 °F - 19.4 °F 50% 30.48 in 10.0 mi Calm Calm - N/A   Clear
1:15 PM 36.7 °F - 19.2 °F 49% 30.47 in 10.0 mi Calm Calm - N/A   Clear
1:35 PM 37.8 °F - 19.6 °F 48% 30.46 in 10.0 mi Calm Calm - N/A   Clear
1:55 PM 38.3 °F - 19.4 °F 47% 30.46 in 10.0 mi Calm Calm - N/A   Clear
2:15 PM 39.4 °F - 18.9 °F 44% 30.44 in 10.0 mi Calm Calm - N/A   Clear
2:35 PM 39.9 °F 37.8 °F 18.7 °F 42% 30.44 in 10.0 mi SE 3.5 mph - N/A   Clear
2:55 PM 39.9 °F 36.7 °F 18.5 °F 42% 30.43 in 10.0 mi SE 4.6 mph - N/A   Clear
3:15 PM 40.5 °F - 18.7 °F 42% 30.43 in 10.0 mi Calm Calm - N/A   Clear
3:35 PM 40.3 °F - 18.7 °F 42% 30.43 in 10.0 mi Calm Calm - N/A   Clear
3:55 PM 40.5 °F - 19.2 °F 43% 30.43 in 10.0 mi Calm Calm - N/A   Clear
4:15 PM 40.6 °F - 19.9 °F 44% 30.43 in 10.0 mi Calm Calm - N/A   Clear
4:35 PM 39.9 °F - 22.1 °F 49% 30.43 in 10.0 mi Calm Calm - N/A   Clear
4:55 PM 39.7 °F - 21.9 °F 49% 30.43 in 10.0 mi Calm Calm - N/A   Clear
5:15 PM 39.0 °F - 22.8 °F 52% 30.44 in 10.0 mi Calm Calm - N/A   Clear
5:35 PM 38.7 °F - 23.5 °F 55% 30.43 in 10.0 mi Calm Calm - N/A   Clear
5:55 PM 37.9 °F - 23.2 °F 55% 30.43 in 10.0 mi Calm Calm - N/A   Clear
6:15 PM 35.1 °F 32.2 °F 26.1 °F 70% 30.43 in 10.0 mi West 3.5 mph - N/A   Clear
6:35 PM 34.7 °F - 25.7 °F 70% 30.43 in 10.0 mi Calm Calm - N/A   Clear
6:55 PM 34.3 °F - 25.7 °F 71% 30.44 in 10.0 mi Calm Calm - N/A   Clear
7:15 PM 34.0 °F - 24.8 °F 69% 30.42 in 10.0 mi Calm Calm - N/A   Clear
7:35 PM 33.8 °F - 25.0 °F 70% 30.41 in 10.0 mi Calm Calm - N/A   Clear
7:55 PM 33.8 °F 30.8 °F 24.1 °F 68% 30.42 in 10.0 mi NNW 3.5 mph - N/A   Clear
8:15 PM 34.3 °F - 22.3 °F 61% 30.42 in 10.0 mi Calm Calm - N/A   Clear
8:35 PM 34.3 °F - 22.3 °F 61% 30.43 in 10.0 mi Calm Calm - N/A   Clear
8:55 PM 34.3 °F - 21.9 °F 60% 30.42 in 10.0 mi Calm Calm - N/A   Mostly Cloudy
9:15 PM 34.3 °F - 22.1 °F 61% 30.43 in 10.0 mi Calm Calm - N/A   Overcast
9:35 PM 34.2 °F - 23.2 °F 64% 30.42 in 10.0 mi Calm Calm - N/A   Overcast
9:55 PM 33.8 °F - 23.0 °F 65% 30.42 in 10.0 mi Calm Calm - N/A   Overcast
10:15 PM 33.8 °F - 22.6 °F 64% 30.41 in 10.0 mi Calm Calm - N/A   Overcast
10:35 PM 33.8 °F 30.8 °F 22.6 °F 64% 30.42 in 10.0 mi NNW 3.5 mph - N/A   Overcast
10:55 PM 34.0 °F - 21.2 °F 60% 30.43 in 10.0 mi Calm Calm - N/A   Overcast
11:35 PM 33.8 °F - 21.4 °F 60% 30.42 in 10.0 mi Calm Calm - N/A   Overcast
11:55 PM 33.4 °F - 21.6 °F 62% 30.41 in 10.0 mi Calm Calm - N/A   Mostly Cloudy